Year,Month,Day,Hour,Minute,Value (Times are PST for temperature in C)
2018,08,09,00,00,19.50
2018,08,09,00,01,19.50
2018,08,09,00,02,19.50
2018,08,09,00,03,19.50
2018,08,09,00,04,19.50
2018,08,09,00,05,19.40
2018,08,09,00,06,19.40
2018,08,09,00,07,19.40
2018,08,09,00,08,19.40
2018,08,09,00,09,19.30
2018,08,09,00,10,19.30
2018,08,09,00,11,19.30
2018,08,09,00,12,19.30
2018,08,09,00,13,19.30
2018,08,09,00,14,19.20
2018,08,09,00,15,19.20
2018,08,09,00,16,19.20
2018,08,09,00,17,19.10
2018,08,09,00,18,19.10
2018,08,09,00,19,19.10
2018,08,09,00,20,19.10
2018,08,09,00,21,19.10
2018,08,09,00,22,19.10
2018,08,09,00,23,19.10
2018,08,09,00,24,19.10
2018,08,09,00,25,18.90
2018,08,09,00,26,18.90
2018,08,09,00,27,18.90
2018,08,09,00,28,18.90
2018,08,09,00,29,18.90
2018,08,09,00,30,18.90
2018,08,09,00,31,18.90
2018,08,09,00,32,18.90
2018,08,09,00,33,18.90
2018,08,09,00,34,18.90
2018,08,09,00,35,18.90
2018,08,09,00,36,18.90
2018,08,09,00,37,18.90
2018,08,09,00,38,18.90
2018,08,09,00,39,18.90
2018,08,09,00,40,18.90
2018,08,09,00,41,18.90
2018,08,09,00,42,18.80
2018,08,09,00,43,18.80
2018,08,09,00,44,18.80
2018,08,09,00,45,18.80
2018,08,09,00,46,18.70
2018,08,09,00,47,18.70
2018,08,09,00,48,18.70
2018,08,09,00,49,18.70
2018,08,09,00,50,18.70
2018,08,09,00,51,18.70
2018,08,09,00,52,18.60
2018,08,09,00,53,18.60
2018,08,09,00,54,18.60
2018,08,09,00,55,18.60
2018,08,09,00,56,18.60
2018,08,09,00,57,18.50
2018,08,09,00,58,18.50
2018,08,09,00,59,18.50
2018,08,09,01,00,18.50
2018,08,09,01,01,18.40
2018,08,09,01,02,18.40
2018,08,09,01,03,18.40
2018,08,09,01,04,18.40
2018,08,09,01,05,18.40
2018,08,09,01,06,18.30
2018,08,09,01,07,18.30
2018,08,09,01,08,18.30
2018,08,09,01,09,18.30
2018,08,09,01,10,18.30
2018,08,09,01,11,18.20
2018,08,09,01,12,18.20
2018,08,09,01,13,18.20
2018,08,09,01,14,18.20
2018,08,09,01,15,18.20
2018,08,09,01,16,18.20
2018,08,09,01,17,18.20
2018,08,09,01,18,18.20
2018,08,09,01,19,18.20
2018,08,09,01,20,18.20
2018,08,09,01,21,18.20
2018,08,09,01,22,18.20
2018,08,09,01,23,18.20
2018,08,09,01,24,18.20
2018,08,09,01,25,18.20
2018,08,09,01,26,18.20
2018,08,09,01,27,18.20
2018,08,09,01,28,18.20
2018,08,09,01,29,18.20
2018,08,09,01,30,18.20
2018,08,09,01,31,18.20
2018,08,09,01,32,18.20
2018,08,09,01,33,18.20
2018,08,09,01,34,18.20
2018,08,09,01,35,18.20
2018,08,09,01,36,18.20
2018,08,09,01,37,18.20
2018,08,09,01,38,18.20
2018,08,09,01,39,18.20
2018,08,09,01,40,18.20
2018,08,09,01,41,18.20
2018,08,09,01,42,18.20
2018,08,09,01,43,18.20
2018,08,09,01,44,18.20
2018,08,09,01,45,18.20
2018,08,09,01,46,18.20
2018,08,09,01,47,18.20
2018,08,09,01,48,18.20
2018,08,09,01,49,18.20
2018,08,09,01,50,18.20
2018,08,09,01,51,18.20
2018,08,09,01,52,18.20
2018,08,09,01,53,18.20
2018,08,09,01,54,18.30
2018,08,09,01,55,18.30
2018,08,09,01,56,18.40
2018,08,09,01,57,18.40
2018,08,09,01,58,18.40
2018,08,09,01,59,18.40
2018,08,09,02,00,18.40
2018,08,09,02,01,18.40
2018,08,09,02,02,18.40
2018,08,09,02,03,18.30
2018,08,09,02,04,18.30
2018,08,09,02,05,18.30
2018,08,09,02,06,18.20
2018,08,09,02,07,18.20
2018,08,09,02,08,18.20
2018,08,09,02,09,18.20
2018,08,09,02,10,18.20
2018,08,09,02,11,18.10
2018,08,09,02,12,18.10
2018,08,09,02,13,18.10
2018,08,09,02,14,18.00
2018,08,09,02,15,17.90
2018,08,09,02,16,17.90
2018,08,09,02,17,17.90
2018,08,09,02,18,17.90
2018,08,09,02,19,17.90
2018,08,09,02,20,17.90
2018,08,09,02,21,17.90
2018,08,09,02,22,17.80
2018,08,09,02,23,17.80
2018,08,09,02,24,17.80
2018,08,09,02,25,17.70
2018,08,09,02,26,17.70
2018,08,09,02,27,17.70
2018,08,09,02,28,17.70
2018,08,09,02,29,17.70
2018,08,09,02,30,17.60
2018,08,09,02,31,17.60
2018,08,09,02,32,17.60
2018,08,09,02,33,17.60
2018,08,09,02,34,17.60
2018,08,09,02,35,17.50
2018,08,09,02,36,17.50
2018,08,09,02,37,17.50
2018,08,09,02,38,17.50
2018,08,09,02,39,17.50
2018,08,09,02,40,17.40
2018,08,09,02,41,17.40
2018,08,09,02,42,17.40
2018,08,09,02,43,17.40
2018,08,09,02,44,17.40
2018,08,09,02,45,17.40
2018,08,09,02,46,17.40
2018,08,09,02,47,17.50
2018,08,09,02,48,17.50
2018,08,09,02,49,17.50
2018,08,09,02,50,17.50
2018,08,09,02,51,17.50
2018,08,09,02,52,17.60
2018,08,09,02,53,17.60
2018,08,09,02,54,17.60
2018,08,09,02,55,17.60
2018,08,09,02,56,17.60
2018,08,09,02,57,17.60
2018,08,09,02,58,17.60
2018,08,09,02,59,17.60
2018,08,09,03,00,17.60
2018,08,09,03,01,17.70
2018,08,09,03,02,17.70
2018,08,09,03,03,17.70
2018,08,09,03,04,17.70
2018,08,09,03,05,17.70
2018,08,09,03,06,17.70
2018,08,09,03,07,17.70
2018,08,09,03,08,17.60
2018,08,09,03,09,17.60
2018,08,09,03,10,17.60
2018,08,09,03,11,17.60
2018,08,09,03,12,17.50
2018,08,09,03,13,17.50
2018,08,09,03,14,17.50
2018,08,09,03,15,17.50
2018,08,09,03,16,17.40
2018,08,09,03,17,17.40
2018,08,09,03,18,17.40
2018,08,09,03,19,17.40
2018,08,09,03,20,17.40
2018,08,09,03,21,17.40
2018,08,09,03,22,17.40
2018,08,09,03,23,17.40
2018,08,09,03,24,17.30
2018,08,09,03,25,17.30
2018,08,09,03,26,17.30
2018,08,09,03,27,17.30
2018,08,09,03,28,17.30
2018,08,09,03,29,17.30
2018,08,09,03,30,17.20
2018,08,09,03,31,17.20
2018,08,09,03,32,17.20
2018,08,09,03,33,17.10
2018,08,09,03,34,17.10
2018,08,09,03,35,17.10
2018,08,09,03,36,17.00
2018,08,09,03,37,17.00
2018,08,09,03,38,17.00
2018,08,09,03,39,16.90
2018,08,09,03,40,16.90
2018,08,09,03,41,16.90
2018,08,09,03,42,16.80
2018,08,09,03,43,16.80
2018,08,09,03,44,16.80
2018,08,09,03,45,16.70
2018,08,09,03,46,16.70
2018,08,09,03,47,16.70
2018,08,09,03,48,16.70
2018,08,09,03,49,16.70
2018,08,09,03,50,16.70
2018,08,09,03,51,16.70
2018,08,09,03,52,16.60
2018,08,09,03,53,16.60
2018,08,09,03,54,16.60
2018,08,09,03,55,16.60
2018,08,09,03,56,16.50
2018,08,09,03,57,16.40
2018,08,09,03,58,16.40
2018,08,09,03,59,16.40
2018,08,09,04,00,16.40
2018,08,09,04,01,16.40
2018,08,09,04,02,16.40
2018,08,09,04,03,16.40
2018,08,09,04,04,16.40
2018,08,09,04,05,16.30
2018,08,09,04,06,16.30
2018,08,09,04,07,16.30
2018,08,09,04,08,16.30
2018,08,09,04,09,16.30
2018,08,09,04,10,16.20
2018,08,09,04,11,16.20
2018,08,09,04,12,16.20
2018,08,09,04,13,16.20
2018,08,09,04,14,16.20
2018,08,09,04,15,16.10
2018,08,09,04,16,16.10
2018,08,09,04,17,16.10
2018,08,09,04,18,16.10
2018,08,09,04,19,16.10
2018,08,09,04,20,16.10
2018,08,09,04,21,16.10
2018,08,09,04,22,16.10
2018,08,09,04,23,16.10
2018,08,09,04,24,16.10
2018,08,09,04,25,16.10
2018,08,09,04,26,16.10
2018,08,09,04,27,16.00
2018,08,09,04,28,15.90
2018,08,09,04,29,15.90
2018,08,09,04,30,15.90
2018,08,09,04,31,15.90
2018,08,09,04,32,15.80
2018,08,09,04,33,15.80
2018,08,09,04,34,15.80
2018,08,09,04,35,15.80
2018,08,09,04,36,15.80
2018,08,09,04,37,15.80
2018,08,09,04,38,15.80
2018,08,09,04,39,15.80
2018,08,09,04,40,15.80
2018,08,09,04,41,15.80
2018,08,09,04,42,15.80
2018,08,09,04,43,15.80
2018,08,09,04,44,15.70
2018,08,09,04,45,15.70
2018,08,09,04,46,15.70
2018,08,09,04,47,15.70
2018,08,09,04,48,15.60
2018,08,09,04,49,15.60
2018,08,09,04,50,15.60
2018,08,09,04,51,15.60
2018,08,09,04,52,15.60
2018,08,09,04,53,15.60
2018,08,09,04,54,15.50
2018,08,09,04,55,15.50
2018,08,09,04,56,15.50
2018,08,09,04,57,15.50
2018,08,09,04,58,15.40
2018,08,09,04,59,15.40
2018,08,09,05,00,15.40
2018,08,09,05,01,15.30
2018,08,09,05,02,15.30
2018,08,09,05,03,15.30
2018,08,09,05,04,15.30
2018,08,09,05,05,15.30
2018,08,09,05,06,15.30
2018,08,09,05,07,15.30
2018,08,09,05,08,15.30
2018,08,09,05,09,15.30
2018,08,09,05,10,15.30
2018,08,09,05,11,15.30
2018,08,09,05,12,15.30
2018,08,09,05,13,15.30
2018,08,09,05,14,15.20
2018,08,09,05,15,15.20
2018,08,09,05,16,15.20
2018,08,09,05,17,15.20
2018,08,09,05,18,15.10
2018,08,09,05,19,15.10
2018,08,09,05,20,15.10
2018,08,09,05,21,15.10
2018,08,09,05,22,15.00
2018,08,09,05,23,15.00
2018,08,09,05,24,14.90
2018,08,09,05,25,14.90
2018,08,09,05,26,14.80
2018,08,09,05,27,14.80
2018,08,09,05,28,14.80
2018,08,09,05,29,14.80
2018,08,09,05,30,14.70
2018,08,09,05,31,14.70
2018,08,09,05,32,14.60
2018,08,09,05,33,14.60
2018,08,09,05,34,14.50
2018,08,09,05,35,14.50
2018,08,09,05,36,14.50
2018,08,09,05,37,14.40
2018,08,09,05,38,14.40
2018,08,09,05,39,14.40
2018,08,09,05,40,14.40
2018,08,09,05,41,14.30
2018,08,09,05,42,14.30
2018,08,09,05,43,14.30
2018,08,09,05,44,14.20
2018,08,09,05,45,14.20
2018,08,09,05,46,14.20
2018,08,09,05,47,14.20
2018,08,09,05,48,14.20
2018,08,09,05,49,14.20
2018,08,09,05,50,14.20
2018,08,09,05,51,14.20
2018,08,09,05,52,14.10
2018,08,09,05,53,14.10
2018,08,09,05,54,14.10
2018,08,09,05,55,14.10
2018,08,09,05,56,14.10
2018,08,09,05,57,14.10
2018,08,09,05,58,14.10
2018,08,09,05,59,14.00
2018,08,09,06,00,14.00
2018,08,09,06,01,14.00
2018,08,09,06,02,14.00
2018,08,09,06,03,14.00
2018,08,09,06,04,13.90
2018,08,09,06,05,13.90
2018,08,09,06,06,13.90
2018,08,09,06,07,13.90
2018,08,09,06,08,13.90
2018,08,09,06,09,13.90
2018,08,09,06,10,13.90
2018,08,09,06,11,13.90
2018,08,09,06,12,13.80
2018,08,09,06,13,13.80
2018,08,09,06,14,13.80
2018,08,09,06,15,13.80
2018,08,09,06,16,13.80
2018,08,09,06,17,13.80
2018,08,09,06,18,13.80
2018,08,09,06,19,13.80
2018,08,09,06,20,13.80
2018,08,09,06,21,13.80
2018,08,09,06,22,13.80
2018,08,09,06,23,13.80
2018,08,09,06,24,13.80
2018,08,09,06,25,13.80
2018,08,09,06,26,13.80
2018,08,09,06,27,13.80
2018,08,09,06,28,13.80
2018,08,09,06,29,13.80
2018,08,09,06,30,13.90
2018,08,09,06,31,13.90
2018,08,09,06,32,13.90
2018,08,09,06,33,13.90
2018,08,09,06,34,14.00
2018,08,09,06,35,14.00
2018,08,09,06,36,14.00
2018,08,09,06,37,14.10
2018,08,09,06,38,14.10
2018,08,09,06,39,14.20
2018,08,09,06,40,14.20
2018,08,09,06,41,14.20
2018,08,09,06,42,14.20
2018,08,09,06,43,14.20
2018,08,09,06,44,14.20
2018,08,09,06,45,14.30
2018,08,09,06,46,14.40
2018,08,09,06,47,14.40
2018,08,09,06,48,14.50
2018,08,09,06,49,14.50
2018,08,09,06,50,14.60
2018,08,09,06,51,14.60
2018,08,09,06,52,14.60
2018,08,09,06,53,14.70
2018,08,09,06,54,14.70
2018,08,09,06,55,14.80
2018,08,09,06,56,14.80
2018,08,09,06,57,14.90
2018,08,09,06,58,15.00
2018,08,09,06,59,15.00
2018,08,09,07,00,15.10
2018,08,09,07,01,15.20
2018,08,09,07,02,15.20
2018,08,09,07,03,15.30
2018,08,09,07,04,15.30
2018,08,09,07,05,15.40
2018,08,09,07,06,15.40
2018,08,09,07,07,15.50
2018,08,09,07,08,15.50
2018,08,09,07,09,15.60
2018,08,09,07,10,15.70
2018,08,09,07,11,15.80
2018,08,09,07,12,15.80
2018,08,09,07,13,16.00
2018,08,09,07,14,16.10
2018,08,09,07,15,16.10
2018,08,09,07,16,16.20
2018,08,09,07,17,16.20
2018,08,09,07,18,16.30
2018,08,09,07,19,16.30
2018,08,09,07,20,16.40
2018,08,09,07,21,16.40
2018,08,09,07,22,16.50
2018,08,09,07,23,16.60
2018,08,09,07,24,16.60
2018,08,09,07,25,16.70
2018,08,09,07,26,16.70
2018,08,09,07,27,16.80
2018,08,09,07,28,16.90
2018,08,09,07,29,17.00
2018,08,09,07,30,17.10
2018,08,09,07,31,17.10
2018,08,09,07,32,17.20
2018,08,09,07,33,17.20
2018,08,09,07,34,17.30
2018,08,09,07,35,17.30
2018,08,09,07,36,17.40
2018,08,09,07,37,17.50
2018,08,09,07,38,17.50
2018,08,09,07,39,17.50
2018,08,09,07,40,17.50
2018,08,09,07,41,17.50
2018,08,09,07,42,17.60
2018,08,09,07,43,17.60
2018,08,09,07,44,17.60
2018,08,09,07,45,17.70
2018,08,09,07,46,17.70
2018,08,09,07,47,17.80
2018,08,09,07,48,17.90
2018,08,09,07,49,17.90
2018,08,09,07,50,17.90
2018,08,09,07,51,18.00
2018,08,09,07,52,18.10
2018,08,09,07,53,18.20
2018,08,09,07,54,18.20
2018,08,09,07,55,18.20
2018,08,09,07,56,18.30
2018,08,09,07,57,18.40
2018,08,09,07,58,18.40
2018,08,09,07,59,18.50
2018,08,09,08,00,18.50
2018,08,09,08,01,18.60
2018,08,09,08,02,18.60
2018,08,09,08,03,18.60
2018,08,09,08,04,18.60
2018,08,09,08,05,18.60
2018,08,09,08,06,18.60
2018,08,09,08,07,18.70
2018,08,09,08,08,18.70
2018,08,09,08,09,18.70
2018,08,09,08,10,18.80
2018,08,09,08,11,18.80
2018,08,09,08,12,18.90
2018,08,09,08,13,18.90
2018,08,09,08,14,18.90
2018,08,09,08,15,18.90
2018,08,09,08,16,18.90
2018,08,09,08,17,19.00
2018,08,09,08,18,19.10
2018,08,09,08,19,19.10
2018,08,09,08,20,19.20
2018,08,09,08,21,19.30
2018,08,09,08,22,19.40
2018,08,09,08,23,19.40
2018,08,09,08,24,19.50
2018,08,09,08,25,19.60
2018,08,09,08,26,19.60
2018,08,09,08,27,19.70
2018,08,09,08,28,19.80
2018,08,09,08,29,19.90
2018,08,09,08,30,20.10
2018,08,09,08,31,20.20
2018,08,09,08,32,20.20
2018,08,09,08,33,20.40
2018,08,09,08,34,20.50
2018,08,09,08,35,20.50
2018,08,09,08,36,20.60
2018,08,09,08,37,20.70
2018,08,09,08,38,20.80
2018,08,09,08,39,21.00
2018,08,09,08,40,21.10
2018,08,09,08,41,21.20
2018,08,09,08,42,21.30
2018,08,09,08,43,21.40
2018,08,09,08,44,21.60
2018,08,09,08,45,21.60
2018,08,09,08,46,21.70
2018,08,09,08,47,21.70
2018,08,09,08,48,21.80
2018,08,09,08,49,21.80
2018,08,09,08,50,21.90
2018,08,09,08,51,22.00
2018,08,09,08,52,22.10
2018,08,09,08,53,22.10
2018,08,09,08,54,22.20
2018,08,09,08,55,22.30
2018,08,09,08,56,22.30
2018,08,09,08,57,22.40
2018,08,09,08,58,22.50
2018,08,09,08,59,22.50
2018,08,09,09,00,22.50
2018,08,09,09,01,22.60
2018,08,09,09,02,22.60
2018,08,09,09,03,22.60
2018,08,09,09,04,22.70
2018,08,09,09,05,22.80
2018,08,09,09,06,22.90
2018,08,09,09,07,22.90
2018,08,09,09,08,22.90
2018,08,09,09,09,23.00
2018,08,09,09,10,23.10
2018,08,09,09,11,23.10
2018,08,09,09,12,23.20
2018,08,09,09,13,23.30
2018,08,09,09,14,23.40
2018,08,09,09,15,23.50
2018,08,09,09,16,23.60
2018,08,09,09,17,23.70
2018,08,09,09,18,23.80
2018,08,09,09,19,23.90
2018,08,09,09,20,24.00
2018,08,09,09,21,24.10
2018,08,09,09,22,24.20
2018,08,09,09,23,24.30
2018,08,09,09,24,24.40
2018,08,09,09,25,24.50
2018,08,09,09,26,24.60
2018,08,09,09,27,24.60
2018,08,09,09,28,24.70
2018,08,09,09,29,24.70
2018,08,09,09,30,24.80
2018,08,09,09,31,24.90
2018,08,09,09,32,25.00
2018,08,09,09,33,25.10
2018,08,09,09,34,25.10
2018,08,09,09,35,25.20
2018,08,09,09,36,25.20
2018,08,09,09,37,25.20
2018,08,09,09,38,25.30
2018,08,09,09,39,25.20
2018,08,09,09,40,25.30
2018,08,09,09,41,25.30
2018,08,09,09,42,25.30
2018,08,09,09,43,25.30
2018,08,09,09,44,25.40
2018,08,09,09,45,25.40
2018,08,09,09,46,25.50
2018,08,09,09,47,25.50
2018,08,09,09,48,25.50
2018,08,09,09,49,25.50
2018,08,09,09,50,25.60
2018,08,09,09,51,25.60
2018,08,09,09,52,25.70
2018,08,09,09,53,25.70
2018,08,09,09,54,25.80
2018,08,09,09,55,25.80
2018,08,09,09,56,25.80
2018,08,09,09,57,25.70
2018,08,09,09,58,25.80
2018,08,09,09,59,25.80
2018,08,09,10,00,25.80
2018,08,09,10,01,25.90
2018,08,09,10,02,26.00
2018,08,09,10,03,26.00
2018,08,09,10,04,26.00
2018,08,09,10,05,26.00
2018,08,09,10,06,26.00
2018,08,09,10,07,26.00
2018,08,09,10,08,26.00
2018,08,09,10,09,26.10
2018,08,09,10,10,26.20
2018,08,09,10,11,26.20
2018,08,09,10,12,26.30
2018,08,09,10,13,26.30
2018,08,09,10,14,26.30
2018,08,09,10,15,26.20
2018,08,09,10,16,26.20
2018,08,09,10,17,26.20
2018,08,09,10,18,26.10
2018,08,09,10,19,26.10
2018,08,09,10,20,26.10
2018,08,09,10,21,26.00
2018,08,09,10,22,25.90
2018,08,09,10,23,25.90
2018,08,09,10,24,25.80
2018,08,09,10,25,25.70
2018,08,09,10,26,25.60
2018,08,09,10,27,25.50
2018,08,09,10,28,25.40
2018,08,09,10,29,25.30
2018,08,09,10,30,25.20
2018,08,09,10,31,25.10
2018,08,09,10,32,25.00
2018,08,09,10,33,25.00
2018,08,09,10,34,24.90
2018,08,09,10,35,24.70
2018,08,09,10,36,24.50
2018,08,09,10,37,24.30
2018,08,09,10,38,24.10
2018,08,09,10,39,23.90
2018,08,09,10,40,23.70
2018,08,09,10,41,23.60
2018,08,09,10,42,23.50
2018,08,09,10,43,23.30
2018,08,09,10,44,23.30
2018,08,09,10,45,23.30
2018,08,09,10,46,23.30
2018,08,09,10,47,23.30
2018,08,09,10,48,23.30
2018,08,09,10,49,23.40
2018,08,09,10,50,23.40
2018,08,09,10,51,23.30
2018,08,09,10,52,23.30
2018,08,09,10,53,23.30
2018,08,09,10,54,23.40
2018,08,09,10,55,23.50
2018,08,09,10,56,23.60
2018,08,09,10,57,23.60
2018,08,09,10,58,23.70
2018,08,09,10,59,23.90
2018,08,09,11,00,24.00
2018,08,09,11,01,24.10
2018,08,09,11,02,24.10
2018,08,09,11,03,24.10
2018,08,09,11,04,24.30
2018,08,09,11,05,24.40
2018,08,09,11,06,24.40
2018,08,09,11,07,24.50
2018,08,09,11,08,24.70
2018,08,09,11,09,24.80
2018,08,09,11,10,24.90
2018,08,09,11,11,25.00
2018,08,09,11,12,25.00
2018,08,09,11,13,25.00
2018,08,09,11,14,25.20
2018,08,09,11,15,25.30
2018,08,09,11,16,25.30
2018,08,09,11,17,25.40
2018,08,09,11,18,25.50
2018,08,09,11,19,25.50
2018,08,09,11,20,25.60
2018,08,09,11,21,25.60
2018,08,09,11,22,25.60
2018,08,09,11,23,25.60
2018,08,09,11,24,25.60
2018,08,09,11,25,25.60
2018,08,09,11,26,25.60
2018,08,09,11,27,25.40
2018,08,09,11,28,25.40
2018,08,09,11,29,25.40
2018,08,09,11,30,25.40
2018,08,09,11,31,25.30
2018,08,09,11,32,25.30
2018,08,09,11,33,25.40
2018,08,09,11,34,25.50
2018,08,09,11,35,25.60
2018,08,09,11,36,25.60
2018,08,09,11,37,25.70
2018,08,09,11,38,25.70
2018,08,09,11,39,25.80
2018,08,09,11,40,25.90
2018,08,09,11,41,26.00
2018,08,09,11,42,26.00
2018,08,09,11,43,26.00
2018,08,09,11,44,26.20
2018,08,09,11,45,26.30
2018,08,09,11,46,26.30
2018,08,09,11,47,26.30
2018,08,09,11,48,26.40
2018,08,09,11,49,26.40
2018,08,09,11,50,26.50
2018,08,09,11,51,26.50
2018,08,09,11,52,26.50
2018,08,09,11,53,26.60
2018,08,09,11,54,26.60
2018,08,09,11,55,26.60
2018,08,09,11,56,26.60
2018,08,09,11,57,26.50
2018,08,09,11,58,26.40
2018,08,09,11,59,26.40
2018,08,09,12,00,26.50
2018,08,09,12,01,26.60
2018,08,09,12,02,26.60
2018,08,09,12,03,26.60
2018,08,09,12,04,26.60
2018,08,09,12,05,26.60
2018,08,09,12,06,26.60
2018,08,09,12,07,26.70
2018,08,09,12,08,26.80
2018,08,09,12,09,26.80
2018,08,09,12,10,26.80
2018,08,09,12,11,26.80
2018,08,09,12,12,26.70
2018,08,09,12,13,26.80
2018,08,09,12,14,26.80
2018,08,09,12,15,26.70
2018,08,09,12,16,26.70
2018,08,09,12,17,26.70
2018,08,09,12,18,26.70
2018,08,09,12,19,26.80
2018,08,09,12,20,26.70
2018,08,09,12,21,26.70
2018,08,09,12,22,26.60
2018,08,09,12,23,26.60
2018,08,09,12,24,26.60
2018,08,09,12,25,26.60
2018,08,09,12,26,26.60
2018,08,09,12,27,26.60
2018,08,09,12,28,26.70
2018,08,09,12,29,26.80
2018,08,09,12,30,26.90
2018,08,09,12,31,26.90
2018,08,09,12,32,26.80
2018,08,09,12,33,26.90
2018,08,09,12,34,26.90
2018,08,09,12,35,27.00
2018,08,09,12,36,26.90
2018,08,09,12,37,26.90
2018,08,09,12,38,26.90
2018,08,09,12,39,26.90
2018,08,09,12,40,26.90
2018,08,09,12,41,27.00
2018,08,09,12,42,27.00
2018,08,09,12,43,26.90
2018,08,09,12,44,26.80
2018,08,09,12,45,26.90
2018,08,09,12,46,27.00
2018,08,09,12,47,27.10
2018,08,09,12,48,27.10
2018,08,09,12,49,27.20
2018,08,09,12,50,27.30
2018,08,09,12,51,27.30
2018,08,09,12,52,27.40
2018,08,09,12,53,27.50
2018,08,09,12,54,27.60
2018,08,09,12,55,27.80
2018,08,09,12,56,27.90
2018,08,09,12,57,28.00
2018,08,09,12,58,28.00
2018,08,09,12,59,27.90
2018,08,09,13,00,27.90
2018,08,09,13,01,27.90
2018,08,09,13,02,27.90
2018,08,09,13,03,27.90
2018,08,09,13,04,27.70
2018,08,09,13,05,27.60
2018,08,09,13,06,27.60
2018,08,09,13,07,27.60
2018,08,09,13,08,27.70
2018,08,09,13,09,27.80
2018,08,09,13,10,27.90
2018,08,09,13,11,28.00
2018,08,09,13,12,28.00
2018,08,09,13,13,28.10
2018,08,09,13,14,28.00
2018,08,09,13,15,28.00
2018,08,09,13,16,28.00
2018,08,09,13,17,28.10
2018,08,09,13,18,28.20
2018,08,09,13,19,28.40
2018,08,09,13,20,28.40
2018,08,09,13,21,28.60
2018,08,09,13,22,28.60
2018,08,09,13,23,28.40
2018,08,09,13,24,28.30
2018,08,09,13,25,28.10
2018,08,09,13,26,27.90
2018,08,09,13,27,27.60
2018,08,09,13,28,27.40
2018,08,09,13,29,27.30
2018,08,09,13,30,27.20
2018,08,09,13,31,27.20
2018,08,09,13,32,27.30
2018,08,09,13,33,27.40
2018,08,09,13,34,27.40
2018,08,09,13,35,27.40
2018,08,09,13,36,27.50
2018,08,09,13,37,27.60
2018,08,09,13,38,27.70
2018,08,09,13,39,27.80
2018,08,09,13,40,27.80
2018,08,09,13,41,27.80
2018,08,09,13,42,27.80
2018,08,09,13,43,27.80
2018,08,09,13,44,27.80
2018,08,09,13,45,27.80
2018,08,09,13,46,27.90
2018,08,09,13,47,27.90
2018,08,09,13,48,27.90
2018,08,09,13,49,27.90
2018,08,09,13,50,28.00
2018,08,09,13,51,28.00
2018,08,09,13,52,27.90
2018,08,09,13,53,27.90
2018,08,09,13,54,27.90
2018,08,09,13,55,27.90
2018,08,09,13,56,27.80
2018,08,09,13,57,27.90
2018,08,09,13,58,27.90
2018,08,09,13,59,27.90
2018,08,09,14,00,27.90
2018,08,09,14,01,27.90
2018,08,09,14,02,27.90
2018,08,09,14,03,27.90
2018,08,09,14,04,28.00
2018,08,09,14,05,28.00
2018,08,09,14,06,28.10
2018,08,09,14,07,28.10
2018,08,09,14,08,28.10
2018,08,09,14,09,28.10
2018,08,09,14,10,28.20
2018,08,09,14,11,28.20
2018,08,09,14,12,28.20
2018,08,09,14,13,28.30
2018,08,09,14,14,28.50
2018,08,09,14,15,28.60
2018,08,09,14,16,28.50
2018,08,09,14,17,28.40
2018,08,09,14,18,28.40
2018,08,09,14,19,28.40
2018,08,09,14,20,28.50
2018,08,09,14,21,28.50
2018,08,09,14,22,28.40
2018,08,09,14,23,28.40
2018,08,09,14,24,28.40
2018,08,09,14,25,28.40
2018,08,09,14,26,28.40
2018,08,09,14,27,28.50
2018,08,09,14,28,28.60
2018,08,09,14,29,28.60
2018,08,09,14,30,28.60
2018,08,09,14,31,28.60
2018,08,09,14,32,28.70
2018,08,09,14,33,28.70
2018,08,09,14,34,28.80
2018,08,09,14,35,28.90
2018,08,09,14,36,28.80
2018,08,09,14,37,28.80
2018,08,09,14,38,28.90
2018,08,09,14,39,28.90
2018,08,09,14,40,28.90
2018,08,09,14,41,29.10
2018,08,09,14,42,29.20
2018,08,09,14,43,29.20
2018,08,09,14,44,29.20
2018,08,09,14,45,29.20
2018,08,09,14,46,29.20
2018,08,09,14,47,29.30
2018,08,09,14,48,29.40
2018,08,09,14,49,29.40
2018,08,09,14,50,29.40
2018,08,09,14,51,29.50
2018,08,09,14,52,29.60
2018,08,09,14,53,29.60
2018,08,09,14,54,29.70
2018,08,09,14,55,29.80
2018,08,09,14,56,29.90
2018,08,09,14,57,30.00
2018,08,09,14,58,30.20
2018,08,09,14,59,30.30
2018,08,09,15,00,30.30
2018,08,09,15,01,30.40
2018,08,09,15,02,30.50
2018,08,09,15,03,30.60
2018,08,09,15,04,30.60
2018,08,09,15,05,30.40
2018,08,09,15,06,30.40
2018,08,09,15,07,30.50
2018,08,09,15,08,30.60
2018,08,09,15,09,30.40
2018,08,09,15,10,30.30
2018,08,09,15,11,30.20
2018,08,09,15,12,30.10
2018,08,09,15,13,30.00
2018,08,09,15,14,29.90
2018,08,09,15,15,29.80
2018,08,09,15,16,29.80
2018,08,09,15,17,29.80
2018,08,09,15,18,29.80
2018,08,09,15,19,29.90
2018,08,09,15,20,30.00
2018,08,09,15,21,30.10
2018,08,09,15,22,30.10
2018,08,09,15,23,30.10
2018,08,09,15,24,30.10
2018,08,09,15,25,30.10
2018,08,09,15,26,30.00
2018,08,09,15,27,30.00
2018,08,09,15,28,30.00
2018,08,09,15,29,30.00
2018,08,09,15,30,30.10
2018,08,09,15,31,30.10
2018,08,09,15,32,30.20
2018,08,09,15,33,30.30
2018,08,09,15,34,30.30
2018,08,09,15,35,30.50
2018,08,09,15,36,30.60
2018,08,09,15,37,30.70
2018,08,09,15,38,30.70
2018,08,09,15,39,30.70
2018,08,09,15,40,30.60
2018,08,09,15,41,30.60
2018,08,09,15,42,30.40
2018,08,09,15,43,30.30
2018,08,09,15,44,30.20
2018,08,09,15,45,30.10
2018,08,09,15,46,30.10
2018,08,09,15,47,30.10
2018,08,09,15,48,30.20
2018,08,09,15,49,30.20
2018,08,09,15,50,30.30
2018,08,09,15,51,30.30
2018,08,09,15,52,30.30
2018,08,09,15,53,30.30
2018,08,09,15,54,30.40
2018,08,09,15,55,30.50
2018,08,09,15,56,30.60
2018,08,09,15,57,30.60
2018,08,09,15,58,30.70
2018,08,09,15,59,30.70
2018,08,09,16,00,30.80
2018,08,09,16,01,30.90
2018,08,09,16,02,30.90
2018,08,09,16,03,30.90
2018,08,09,16,04,30.90
2018,08,09,16,05,30.90
2018,08,09,16,06,30.90
2018,08,09,16,07,30.90
2018,08,09,16,08,30.90
2018,08,09,16,09,30.80
2018,08,09,16,10,30.80
2018,08,09,16,11,30.80
2018,08,09,16,12,30.70
2018,08,09,16,13,30.80
2018,08,09,16,14,30.80
2018,08,09,16,15,30.70
2018,08,09,16,16,30.70
2018,08,09,16,17,30.70
2018,08,09,16,18,30.60
2018,08,09,16,19,30.40
2018,08,09,16,20,30.40
2018,08,09,16,21,30.30
2018,08,09,16,22,30.30
2018,08,09,16,23,30.30
2018,08,09,16,24,30.40
2018,08,09,16,25,30.30
2018,08,09,16,26,30.40
2018,08,09,16,27,30.40
2018,08,09,16,28,30.30
2018,08,09,16,29,30.20
2018,08,09,16,30,30.20
2018,08,09,16,31,30.20
2018,08,09,16,32,30.10
2018,08,09,16,33,30.10
2018,08,09,16,34,30.00
2018,08,09,16,35,29.90
2018,08,09,16,36,30.00
2018,08,09,16,37,30.10
2018,08,09,16,38,30.20
2018,08,09,16,39,30.20
2018,08,09,16,40,30.30
2018,08,09,16,41,30.40
2018,08,09,16,42,30.60
2018,08,09,16,43,30.60
2018,08,09,16,44,30.60
2018,08,09,16,45,30.60
2018,08,09,16,46,30.60
2018,08,09,16,47,30.60
2018,08,09,16,48,30.70
2018,08,09,16,49,30.70
2018,08,09,16,50,30.70
2018,08,09,16,51,30.70
2018,08,09,16,52,30.60
2018,08,09,16,53,30.40
2018,08,09,16,54,30.60
2018,08,09,16,55,30.60
2018,08,09,16,56,30.60
2018,08,09,16,57,30.60
2018,08,09,16,58,30.70
2018,08,09,16,59,30.70
2018,08,09,17,00,30.70
2018,08,09,17,01,30.70
2018,08,09,17,02,30.70
2018,08,09,17,03,30.70
2018,08,09,17,04,30.60
2018,08,09,17,05,30.60
2018,08,09,17,06,30.40
2018,08,09,17,07,30.40
2018,08,09,17,08,30.40
2018,08,09,17,09,30.40
2018,08,09,17,10,30.40
2018,08,09,17,11,30.50
2018,08,09,17,12,30.60
2018,08,09,17,13,30.70
2018,08,09,17,14,30.80
2018,08,09,17,15,30.90
2018,08,09,17,16,31.00
2018,08,09,17,17,31.20
2018,08,09,17,18,31.30
2018,08,09,17,19,31.40